Amarillo, TX

10:12 AM CDT on April 23, 2017 (GMT -0500)
Amarillo International

Weather History for KAMA - April, 2013

Change the Weather History Date:

Monday, April 29, 2013

  Actual Average Record
Temperature  
Mean Temperature 77 °F 60 °F  
Max Temperature 94 °F 75 °F 94 °F (1910)
Min Temperature 59 °F 46 °F 30 °F (1907)
Degree Days  
Heating Degree Days 0 6  
Month to date heating degree days 340 275  
Since 1 July heating degree days 3642 4084  
Cooling Degree Days 12 1  
Month to date cooling degree days 30 15  
Year to date cooling degree days 30 17  
Growing Degree Days 26 (Base 50)    
Moisture  
Dew Point 31 °F    
Average Humidity 26    
Maximum Humidity 46    
Minimum Humidity 5    
Precipitation  
Precipitation 0.00 in 0.05 in 1.56 in (1901)
Month to date precipitation 0.05 1.35  
Year to date precipitation 3.49 4.02  
Snow  
Snow 0.00 in 0.00 in 0.20 in (1903)
Month to date snowfall T 0.7  
Since 1 July snowfall 29.7 17.6  
Snow Depth 0.00 in    
Sea Level Pressure  
Sea Level Pressure 29.64 in    
Wind  
Wind Speed 21 mph (SSW)    
Max Wind Speed 31 mph    
Max Gust Speed 43 mph    
Visibility 10 miles    
Events      
T = Trace of Precipitation, MM = Missing Value Source: NWS Daily Summary

Daily Weather History Graph

Daily Weather History Graph

Search for Another Location

Airport or City:

Trip Planner

Search our weather history database for the weather conditions in past years. The results will help you decide how hot, cold, wet, or windy it might be!

Date:

Astronomy

Apr. 29, 2013 Rise Set
Actual Time 6:57 AM CDT 8:31 PM CDT
Civil Twilight 6:30 AM CDT 8:58 PM CDT
Nautical Twilight 5:58 AM CDT 9:30 PM CDT
Astronomical Twilight 5:23 AM CDT 10:05 PM CDT
Moon No Moon Rise 10:24 AM CDT (4/29)
Length of Visible Light 14h 27m
Length of Day
13h 33m
Waning Gibbous, 80% of the Moon is Illuminated
Apr 29
Waning Gibbous
May 2
Last Quarter
May 9
New
May 17
First Quarter
May 24
Full

Hourly Weather History & Observations

Time (CDT) Temp. Dew Point Humidity Pressure Visibility Wind Dir Wind Speed Gust Speed Precip Events Conditions
12:53 AM 66.0 °F 30.9 °F 27% 29.71 in 10.0 mi South 17.3 mph - N/A   Clear
1:53 AM 62.1 °F 33.1 °F 34% 29.73 in 10.0 mi South 17.3 mph - N/A   Clear
2:53 AM 60.1 °F 34.0 °F 38% 29.71 in 10.0 mi SSW 15.0 mph - N/A   Clear
3:53 AM 63.0 °F 35.1 °F 35% 29.69 in 10.0 mi SSW 16.1 mph - N/A   Clear
4:53 AM 62.1 °F 36.0 °F 38% 29.70 in 10.0 mi SSW 17.3 mph - N/A   Clear
5:53 AM 62.1 °F 37.0 °F 39% 29.70 in 10.0 mi SW 19.6 mph - N/A   Clear
6:53 AM 60.1 °F 37.9 °F 44% 29.71 in 10.0 mi SW 20.7 mph - N/A   Clear
7:53 AM 61.0 °F 39.0 °F 44% 29.73 in 10.0 mi SSW 19.6 mph - N/A   Clear
8:53 AM 66.9 °F 39.9 °F 37% 29.74 in 10.0 mi SSW 21.9 mph 27.6 mph N/A   Clear
9:53 AM 75.0 °F 39.9 °F 28% 29.71 in 10.0 mi SSW 20.7 mph 25.3 mph N/A   Clear
10:53 AM 82.0 °F 37.0 °F 20% 29.69 in 10.0 mi SW 24.2 mph 35.7 mph N/A   Clear
11:53 AM 84.9 °F 37.0 °F 18% 29.68 in 10.0 mi SSW 25.3 mph 34.5 mph N/A   Clear
12:53 PM 87.8 °F 32.0 °F 14% 29.82 in 10.0 mi SSW 19.6 mph 32.2 mph N/A   Clear
1:53 PM 90.0 °F 28.0 °F 11% 29.63 in 10.0 mi SW 21.9 mph 27.6 mph N/A   Clear
2:53 PM 91.9 °F 24.1 °F 9% 29.60 in 10.0 mi SW 19.6 mph 42.6 mph N/A   Clear
3:53 PM 91.9 °F 26.1 °F 9% 29.56 in 10.0 mi SSW 20.7 mph 32.2 mph N/A   Clear
4:53 PM 93.0 °F 19.9 °F 7% 29.53 in 10.0 mi SSW 19.6 mph 28.8 mph N/A   Clear
5:53 PM 91.0 °F 12.0 °F 5% 29.51 in 10.0 mi SSW 16.1 mph 31.1 mph N/A   Clear
6:53 PM 89.1 °F 19.9 °F 8% 29.51 in 10.0 mi South 20.7 mph - N/A   Clear
7:53 PM 86.0 °F 25.0 °F 11% 29.51 in 10.0 mi South 25.3 mph 32.2 mph N/A   Clear
8:53 PM 81.0 °F 28.9 °F 15% 29.53 in 10.0 mi South 23.0 mph 31.1 mph N/A   Clear
9:53 PM 75.9 °F 28.9 °F 18% 29.54 in 10.0 mi SSE 15.0 mph - N/A   Clear
10:53 PM 75.9 °F 32.0 °F 20% 29.55 in 10.0 mi SSE 21.9 mph 33.4 mph N/A   Clear
11:53 PM 73.9 °F 32.0 °F 21% 29.54 in 10.0 mi South 27.6 mph 33.4 mph N/A   Clear